Time,TemperatureF,DewpointF,PressureIn,WindDirection,WindDirectionDegrees,WindSpeedMPH,WindSpeedGustMPH,Humidity,HourlyPrecipIn,Conditions,Clouds,dailyrainin,SoftwareType,DateUTC
2013-04-10 00:00:00,65.3,45.7,29.03,SSW,196,0.0,0.0,49,0.00,,SKC,0.00,VWS V14.00,2013-04-10 04:00:00,
2013-04-10 00:07:00,64.8,45.2,29.03,SSW,195,0.0,0.0,49,0.00,,SKC,0.00,VWS V14.00,2013-04-10 04:07:00,
2013-04-10 00:12:00,64.6,45.0,29.03,SSW,195,0.0,0.0,49,0.00,,SKC,0.00,VWS V14.00,2013-04-10 04:12:00,
2013-04-10 00:17:00,64.4,45.4,29.03,SSW,195,0.0,0.0,50,0.00,,SKC,0.00,VWS V14.00,2013-04-10 04:17:00,
2013-04-10 00:22:00,64.2,45.2,29.03,SSW,195,0.0,0.0,50,0.00,,SKC,0.00,VWS V14.00,2013-04-10 04:22:00,
2013-04-10 00:27:00,64.0,45.0,29.03,SSW,195,0.0,0.0,50,0.00,,SKC,0.00,VWS V14.00,2013-04-10 04:27:00,
2013-04-10 00:32:00,64.0,45.0,29.03,SSW,195,0.0,0.0,50,0.00,,SKC,0.00,VWS V14.00,2013-04-10 04:32:00,
2013-04-10 00:37:00,63.9,44.9,29.03,SSW,195,0.0,0.0,50,0.00,,SKC,0.00,VWS V14.00,2013-04-10 04:37:00,
2013-04-10 00:42:00,63.7,44.7,29.03,SSW,195,0.0,0.0,50,0.00,,SKC,0.00,VWS V14.00,2013-04-10 04:42:00,
2013-04-10 00:47:00,63.5,44.5,29.03,SSW,195,0.0,0.0,50,0.00,,SKC,0.00,VWS V14.00,2013-04-10 04:47:00,
2013-04-10 00:52:00,63.5,44.5,29.03,SSW,195,0.0,0.0,50,0.00,,SKC,0.00,VWS V14.00,2013-04-10 04:52:00,
2013-04-10 00:57:00,63.3,44.9,29.03,SSW,195,0.0,0.0,51,0.00,,SKC,0.00,VWS V14.00,2013-04-10 04:57:00,
2013-04-10 01:02:00,63.1,44.7,29.03,SSW,195,0.0,0.0,51,0.00,,SKC,0.00,VWS V14.00,2013-04-10 05:02:00,
2013-04-10 01:07:00,62.8,44.4,29.03,SSW,195,0.0,0.0,51,0.00,,SKC,0.00,VWS V14.00,2013-04-10 05:07:00,
2013-04-10 01:12:00,62.6,44.8,29.03,SSW,195,0.0,0.0,52,0.00,,SKC,0.00,VWS V14.00,2013-04-10 05:12:00,
2013-04-10 01:17:00,62.4,44.6,29.03,SSW,195,0.0,0.0,52,0.00,,SKC,0.00,VWS V14.00,2013-04-10 05:17:00,
2013-04-10 01:22:00,62.2,44.4,29.03,SSW,195,0.0,0.0,52,0.00,,SKC,0.00,VWS V14.00,2013-04-10 05:22:00,
2013-04-10 01:27:00,62.2,44.9,29.03,SSW,195,0.0,0.0,53,0.00,,SKC,0.00,VWS V14.00,2013-04-10 05:27:00,
2013-04-10 01:32:00,62.1,44.8,29.03,SSW,195,0.0,0.0,53,0.00,,SKC,0.00,VWS V14.00,2013-04-10 05:32:00,
2013-04-10 01:37:00,61.9,44.6,29.03,SSW,195,0.0,0.0,53,0.00,,SKC,0.00,VWS V14.00,2013-04-10 05:37:00,
2013-04-10 01:42:00,61.9,44.6,29.03,SSW,195,0.0,0.0,53,0.00,,SKC,0.00,VWS V14.00,2013-04-10 05:42:00,
2013-04-10 01:47:00,61.9,44.6,29.03,SSW,195,0.0,0.0,53,0.00,,SKC,0.00,VWS V14.00,2013-04-10 05:47:00,
2013-04-10 01:52:00,61.7,44.4,29.03,SSW,195,0.0,0.0,53,0.00,,SKC,0.00,VWS V14.00,2013-04-10 05:52:00,
2013-04-10 01:57:00,61.7,44.4,29.03,SSW,195,0.0,0.0,53,0.00,,SKC,0.00,VWS V14.00,2013-04-10 05:57:00,
2013-04-10 02:02:00,61.5,44.7,29.03,SSW,195,0.0,0.0,54,0.00,,SKC,0.00,VWS V14.00,2013-04-10 06:02:00,
2013-04-10 02:07:00,61.3,44.6,29.03,SSW,195,0.0,0.0,54,0.00,,SKC,0.00,VWS V14.00,2013-04-10 06:07:00,
2013-04-10 02:13:00,61.2,44.4,29.03,SSW,195,0.0,0.0,54,0.00,,SKC,0.00,VWS V14.00,2013-04-10 06:13:00,
2013-04-10 02:18:00,61.0,44.2,29.00,SSW,195,0.0,0.0,54,0.00,,SKC,0.00,VWS V14.00,2013-04-10 06:18:00,
2013-04-10 02:23:00,60.8,44.1,29.00,SSW,195,0.0,0.0,54,0.00,,SKC,0.00,VWS V14.00,2013-04-10 06:23:00,
2013-04-10 02:28:00,60.6,44.4,29.00,SSW,195,0.0,0.0,55,0.00,,SKC,0.00,VWS V14.00,2013-04-10 06:28:00,
2013-04-10 02:33:00,60.6,44.4,29.00,SSW,195,0.0,0.0,55,0.00,,SKC,0.00,VWS V14.00,2013-04-10 06:33:00,
2013-04-10 02:38:00,60.4,44.2,29.00,SSW,195,0.0,0.0,55,0.00,,SKC,0.00,VWS V14.00,2013-04-10 06:38:00,
2013-04-10 02:43:00,60.3,44.0,29.00,SSW,195,0.0,0.0,55,0.00,,SKC,0.00,VWS V14.00,2013-04-10 06:43:00,
2013-04-10 02:48:00,60.1,44.3,29.00,SSW,195,0.0,0.0,56,0.00,,SKC,0.00,VWS V14.00,2013-04-10 06:48:00,
2013-04-10 02:53:00,59.9,44.2,29.00,SSW,195,0.0,0.0,56,0.00,,SKC,0.00,VWS V14.00,2013-04-10 06:53:00,
2013-04-10 02:58:00,59.9,44.2,29.00,SSW,195,0.0,0.0,56,0.00,,SKC,0.00,VWS V14.00,2013-04-10 06:58:00,
2013-04-10 03:03:00,59.9,44.2,29.00,SSW,195,0.0,0.0,56,0.00,,SKC,0.00,VWS V14.00,2013-04-10 07:03:00,
2013-04-10 03:08:00,59.7,44.0,29.00,SSW,195,0.0,0.0,56,0.00,,SKC,0.00,VWS V14.00,2013-04-10 07:08:00,
2013-04-10 03:13:00,59.7,44.5,29.00,SSW,195,0.0,0.0,57,0.00,,SKC,0.00,VWS V14.00,2013-04-10 07:13:00,
2013-04-10 03:18:00,59.7,44.5,29.00,SSW,195,0.0,0.0,57,0.00,,SKC,0.00,VWS V14.00,2013-04-10 07:18:00,
2013-04-10 03:23:00,59.5,44.3,29.00,SSW,195,0.0,0.0,57,0.00,,SKC,0.00,VWS V14.00,2013-04-10 07:23:00,
2013-04-10 03:28:00,59.4,44.1,29.00,SSW,195,0.0,0.0,57,0.00,,SKC,0.00,VWS V14.00,2013-04-10 07:28:00,
2013-04-10 03:35:00,59.2,44.0,29.00,SSW,195,0.0,0.0,57,0.00,,SKC,0.00,VWS V14.00,2013-04-10 07:35:00,
2013-04-10 03:40:00,59.2,44.0,29.00,SSW,195,0.0,0.0,57,0.00,,SKC,0.00,VWS V14.00,2013-04-10 07:40:00,
2013-04-10 03:45:00,59.2,44.0,29.00,SSW,195,0.0,0.0,57,0.00,,SKC,0.00,VWS V14.00,2013-04-10 07:45:00,
2013-04-10 03:50:00,59.0,44.3,29.00,SSW,195,0.0,0.0,58,0.00,,SKC,0.00,VWS V14.00,2013-04-10 07:50:00,
2013-04-10 03:55:00,59.0,44.3,29.00,SSW,195,0.0,0.0,58,0.00,,SKC,0.00,VWS V14.00,2013-04-10 07:55:00,
2013-04-10 04:00:00,58.8,44.1,29.00,SSW,195,0.0,0.0,58,0.00,,SKC,0.00,VWS V14.00,2013-04-10 08:00:00,
2013-04-10 04:05:00,58.8,44.1,29.00,SSW,195,0.0,0.0,58,0.00,,SKC,0.00,VWS V14.00,2013-04-10 08:05:00,
2013-04-10 04:10:00,58.6,44.4,29.00,SSW,195,0.0,0.0,59,0.00,,SKC,0.00,VWS V14.00,2013-04-10 08:10:00,
2013-04-10 04:15:00,58.5,44.2,29.00,SSW,195,0.0,0.0,59,0.00,,SKC,0.00,VWS V14.00,2013-04-10 08:15:00,
2013-04-10 04:20:00,58.5,44.2,29.00,SSW,195,0.0,0.0,59,0.00,,SKC,0.00,VWS V14.00,2013-04-10 08:20:00,
2013-04-10 04:25:00,58.3,44.0,29.00,SSW,195,0.0,0.0,59,0.00,,SKC,0.00,VWS V14.00,2013-04-10 08:25:00,
2013-04-10 04:30:00,58.1,43.9,29.00,SSW,195,0.0,0.0,59,0.00,,SKC,0.00,VWS V14.00,2013-04-10 08:30:00,
2013-04-10 04:35:00,58.1,43.9,29.00,SSW,195,0.0,0.0,59,0.00,,SKC,0.00,VWS V14.00,2013-04-10 08:35:00,
2013-04-10 04:41:00,57.9,43.7,29.00,SSW,195,0.0,0.0,59,0.00,,SKC,0.00,VWS V14.00,2013-04-10 08:41:00,
2013-04-10 04:46:00,57.9,43.7,29.00,SSW,195,0.0,0.0,59,0.00,,SKC,0.00,VWS V14.00,2013-04-10 08:46:00,
2013-04-10 04:51:00,57.9,43.7,29.00,SSW,195,0.0,0.0,59,0.00,,SKC,0.00,VWS V14.00,2013-04-10 08:51:00,
2013-04-10 04:56:00,57.7,44.0,29.00,SSW,195,0.0,0.0,60,0.00,,SKC,0.00,VWS V14.00,2013-04-10 08:56:00,
2013-04-10 05:01:00,57.7,44.0,29.00,SSW,195,0.0,0.0,60,0.00,,SKC,0.00,VWS V14.00,2013-04-10 09:01:00,
2013-04-10 05:06:00,57.6,43.8,29.00,SSW,195,0.0,0.0,60,0.00,,SKC,0.00,VWS V14.00,2013-04-10 09:06:00,
2013-04-10 05:11:00,57.6,43.8,29.00,SSW,195,0.0,0.0,60,0.00,,SKC,0.00,VWS V14.00,2013-04-10 09:11:00,
2013-04-10 05:16:00,57.6,43.8,29.00,SSW,195,0.0,0.0,60,0.00,,SKC,0.00,VWS V14.00,2013-04-10 09:16:00,
2013-04-10 05:30:00,57.2,43.5,28.97,South,190,0.0,0.0,60,0.00,,SKC,0.00,VWS V14.00,2013-04-10 09:30:00,
2013-04-10 05:36:00,57.2,43.9,28.97,South,190,0.0,0.0,61,0.00,,SKC,0.00,VWS V14.00,2013-04-10 09:36:00,
2013-04-10 05:41:00,57.0,43.7,28.97,South,182,0.0,0.0,61,0.00,,SKC,0.00,VWS V14.00,2013-04-10 09:41:00,
2013-04-10 05:46:00,57.0,43.7,28.97,South,181,0.0,0.0,61,0.00,,SKC,0.00,VWS V14.00,2013-04-10 09:46:00,
2013-04-10 05:51:00,57.0,44.1,28.97,South,181,0.0,0.0,62,0.00,,SKC,0.00,VWS V14.00,2013-04-10 09:51:00,
2013-04-10 05:56:00,56.8,43.5,28.97,South,181,0.0,0.0,61,0.00,,SKC,0.00,VWS V14.00,2013-04-10 09:56:00,
2013-04-10 06:06:00,56.7,43.8,28.97,South,181,0.0,0.0,62,0.00,,SKC,0.00,VWS V14.00,2013-04-10 10:06:00,
2013-04-10 06:11:00,56.7,43.8,28.97,South,181,0.0,0.0,62,0.00,,SKC,0.00,VWS V14.00,2013-04-10 10:11:00,
2013-04-10 06:16:00,56.3,43.5,28.97,South,181,0.0,0.0,62,0.00,,SKC,0.00,VWS V14.00,2013-04-10 10:16:00,
2013-04-10 06:22:00,56.3,43.5,28.97,South,181,0.0,0.0,62,0.00,,SKC,0.00,VWS V14.00,2013-04-10 10:22:00,
2013-04-10 06:27:00,56.3,43.5,28.97,South,181,0.0,0.0,62,0.00,,SKC,0.00,VWS V14.00,2013-04-10 10:27:00,
2013-04-10 06:32:00,56.1,43.3,28.97,South,181,0.0,0.0,62,0.00,,SKC,0.00,VWS V14.00,2013-04-10 10:32:00,
2013-04-10 06:37:00,56.1,43.3,29.00,South,181,0.0,0.0,62,0.00,,SKC,0.00,VWS V14.00,2013-04-10 10:37:00,
2013-04-10 06:42:00,55.9,43.5,29.00,South,181,0.0,0.0,63,0.00,,SKC,0.00,VWS V14.00,2013-04-10 10:42:00,
2013-04-10 06:47:00,55.9,43.5,29.00,South,181,0.0,0.0,63,0.00,,SKC,0.00,VWS V14.00,2013-04-10 10:47:00,
2013-04-10 06:52:00,55.8,43.4,29.00,South,181,0.0,0.0,63,0.00,,SKC,0.00,VWS V14.00,2013-04-10 10:52:00,
2013-04-10 06:57:00,55.8,43.4,29.00,South,181,0.0,0.0,63,0.00,,SKC,0.00,VWS V14.00,2013-04-10 10:57:00,
2013-04-10 07:02:00,55.6,43.2,29.00,South,181,0.0,0.0,63,0.00,,SKC,0.00,VWS V14.00,2013-04-10 11:02:00,
2013-04-10 07:07:00,55.6,43.2,29.00,South,182,0.0,0.0,63,0.00,,SKC,0.00,VWS V14.00,2013-04-10 11:07:00,
2013-04-10 07:12:00,55.6,43.2,29.00,South,181,0.0,0.0,63,0.00,,SKC,0.00,VWS V14.00,2013-04-10 11:12:00,
2013-04-10 07:17:00,55.6,43.2,29.00,South,181,0.0,0.0,63,0.00,,SKC,0.00,VWS V14.00,2013-04-10 11:17:00,
2013-04-10 07:22:00,55.4,43.4,29.00,South,182,0.0,0.0,64,0.00,,SKC,0.00,VWS V14.00,2013-04-10 11:22:00,
2013-04-10 07:27:00,55.6,43.6,29.00,South,181,0.0,0.0,64,0.00,,SKC,0.00,VWS V14.00,2013-04-10 11:27:00,
2013-04-10 07:32:00,55.6,43.6,29.00,South,180,0.0,0.0,64,0.00,,SKC,0.00,VWS V14.00,2013-04-10 11:32:00,
2013-04-10 07:37:00,55.6,43.6,29.00,South,180,0.0,0.0,64,0.00,,SKC,0.00,VWS V14.00,2013-04-10 11:37:00,
2013-04-10 07:42:00,55.6,44.0,29.00,South,180,0.0,0.0,65,0.00,,SKC,0.00,VWS V14.00,2013-04-10 11:42:00,
2013-04-10 07:47:00,55.8,44.2,29.00,South,180,0.0,0.0,65,0.00,,SKC,0.00,VWS V14.00,2013-04-10 11:47:00,
2013-04-10 07:52:00,55.8,44.2,29.00,South,180,0.0,0.0,65,0.00,,SKC,0.00,VWS V14.00,2013-04-10 11:52:00,
2013-04-10 07:57:00,55.9,44.4,29.00,South,180,0.0,0.0,65,0.00,,SKC,0.00,VWS V14.00,2013-04-10 11:57:00,
2013-04-10 08:02:00,56.1,44.9,29.00,South,180,0.0,0.0,66,0.00,,SKC,0.00,VWS V14.00,2013-04-10 12:02:00,
2013-04-10 08:07:00,56.3,45.1,29.00,SSW,193,0.0,0.0,66,0.00,,SKC,0.00,VWS V14.00,2013-04-10 12:07:00,
2013-04-10 08:12:00,56.7,45.4,29.00,SSW,193,0.0,0.0,66,0.00,,SKC,0.00,VWS V14.00,2013-04-10 12:12:00,
2013-04-10 08:17:00,56.8,45.6,29.00,SSW,193,0.0,0.0,66,0.00,,SKC,0.00,VWS V14.00,2013-04-10 12:17:00,
2013-04-10 08:22:00,57.2,46.0,29.00,SSW,193,0.0,0.0,66,0.00,,SKC,0.00,VWS V14.00,2013-04-10 12:22:00,
2013-04-10 08:27:00,57.4,46.1,29.00,SSW,193,0.0,0.0,66,0.00,,SKC,0.00,VWS V14.00,2013-04-10 12:27:00,
2013-04-10 08:32:00,57.7,46.9,29.03,SSW,193,0.0,0.0,67,0.00,,SKC,0.00,VWS V14.00,2013-04-10 12:32:00,
2013-04-10 08:37:00,58.1,47.2,29.03,SSW,193,0.0,0.0,67,0.00,,SKC,0.00,VWS V14.00,2013-04-10 12:37:00,
2013-04-10 08:42:00,58.6,47.7,29.03,SSW,193,0.0,0.0,67,0.00,,SKC,0.00,VWS V14.00,2013-04-10 12:42:00,
2013-04-10 08:47:00,59.4,48.8,29.03,SSW,193,0.0,0.0,68,0.00,,SKC,0.00,VWS V14.00,2013-04-10 12:47:00,
2013-04-10 08:52:00,60.4,49.8,29.03,SSW,193,0.0,0.0,68,0.00,,SKC,0.00,VWS V14.00,2013-04-10 12:52:00,
2013-04-10 08:57:00,61.2,50.5,29.03,SSW,193,0.0,0.0,68,0.00,,SKC,0.00,VWS V14.00,2013-04-10 12:57:00,
2013-04-10 09:02:00,62.1,51.4,29.03,SSW,193,0.0,0.0,68,0.00,,SKC,0.00,VWS V14.00,2013-04-10 13:02:00,
2013-04-10 09:07:00,62.6,51.5,29.03,SSW,193,0.0,0.0,67,0.00,,SKC,0.00,VWS V14.00,2013-04-10 13:07:00,
2013-04-10 09:12:00,63.5,52.4,29.03,SSW,193,0.0,0.0,67,0.00,,SKC,0.00,VWS V14.00,2013-04-10 13:12:00,
2013-04-10 09:17:00,64.4,53.2,29.03,SSW,193,0.0,0.0,67,0.00,,SKC,0.00,VWS V14.00,2013-04-10 13:17:00,
2013-04-10 09:22:00,65.3,54.1,29.03,NW,306,0.0,0.0,67,0.00,,SKC,0.00,VWS V14.00,2013-04-10 13:22:00,
2013-04-10 09:27:00,66.0,54.3,29.03,NW,316,0.0,0.0,66,0.00,,SKC,0.00,VWS V14.00,2013-04-10 13:27:00,
2013-04-10 09:32:00,66.7,54.6,29.06,SW,233,0.0,0.0,65,0.00,,SKC,0.00,VWS V14.00,2013-04-10 13:32:00,
2013-04-10 09:38:00,66.9,54.4,29.06,NW,318,0.0,0.0,64,0.00,,SKC,0.00,VWS V14.00,2013-04-10 13:38:00,
2013-04-10 09:43:00,67.5,54.9,29.06,NW,318,0.0,0.0,64,0.00,,SKC,0.00,VWS V14.00,2013-04-10 13:43:00,
2013-04-10 09:48:00,68.2,55.1,29.06,NW,318,0.0,0.0,63,0.00,,SKC,0.00,VWS V14.00,2013-04-10 13:48:00,
2013-04-10 09:53:00,68.9,55.4,29.06,NW,322,0.0,2.7,62,0.00,,SKC,0.00,VWS V14.00,2013-04-10 13:53:00,
2013-04-10 09:58:00,69.1,55.5,29.06,NW,317,0.0,2.7,62,0.00,,SKC,0.00,VWS V14.00,2013-04-10 13:58:00,
2013-04-10 10:03:00,69.4,55.4,29.06,SW,225,0.0,0.0,61,0.00,,SKC,0.00,VWS V14.00,2013-04-10 14:03:00,
2013-04-10 10:08:00,69.6,55.6,29.06,SSW,209,0.0,0.0,61,0.00,,SKC,0.00,VWS V14.00,2013-04-10 14:08:00,
2013-04-10 10:13:00,70.0,55.5,29.06,South,181,0.0,0.0,60,0.00,,SKC,0.00,VWS V14.00,2013-04-10 14:13:00,
2013-04-10 10:18:00,70.3,55.8,29.06,SW,223,0.0,0.0,60,0.00,,SKC,0.00,VWS V14.00,2013-04-10 14:18:00,
2013-04-10 10:23:00,70.7,55.7,29.06,West,267,0.0,4.0,59,0.00,,SKC,0.00,VWS V14.00,2013-04-10 14:23:00,
2013-04-10 10:28:00,71.1,56.0,29.06,SW,234,0.0,4.5,59,0.00,,SKC,0.00,VWS V14.00,2013-04-10 14:28:00,
2013-04-10 10:33:00,71.4,55.9,29.06,NW,320,4.8,4.8,58,0.00,,SKC,0.00,VWS V14.00,2013-04-10 14:33:00,
2013-04-10 10:38:00,72.0,55.9,29.06,SSE,151,2.7,4.0,57,0.00,,SKC,0.00,VWS V14.00,2013-04-10 14:38:00,
2013-04-10 10:43:00,72.3,56.2,29.06,SW,226,5.9,5.9,57,0.00,,SKC,0.00,VWS V14.00,2013-04-10 14:43:00,
2013-04-10 10:48:00,72.5,54.9,29.06,SSW,198,4.3,5.8,54,0.00,,SKC,0.00,VWS V14.00,2013-04-10 14:48:00,
2013-04-10 10:53:00,72.7,55.1,29.06,West,274,5.4,5.4,54,0.00,,SKC,0.00,VWS V14.00,2013-04-10 14:53:00,
2013-04-10 10:58:00,72.7,55.1,29.06,West,259,0.0,4.5,54,0.00,,SKC,0.00,VWS V14.00,2013-04-10 14:58:00,
2013-04-10 11:03:00,73.0,54.9,29.06,SW,216,3.8,3.8,53,0.00,,SKC,0.00,VWS V14.00,2013-04-10 15:03:00,
2013-04-10 11:08:00,73.6,55.9,29.06,NNW,327,3.8,4.9,54,0.00,,SKC,0.00,VWS V14.00,2013-04-10 15:08:00,
2013-04-10 11:13:00,73.9,55.2,29.06,SW,223,5.9,7.2,52,0.00,,SKC,0.00,VWS V14.00,2013-04-10 15:13:00,
2013-04-10 11:18:00,74.3,55.6,29.06,SW,220,0.0,7.2,52,0.00,,SKC,0.00,VWS V14.00,2013-04-10 15:18:00,
2013-04-10 11:23:00,74.8,56.0,29.06,SSE,149,2.7,4.0,52,0.00,,SKC,0.00,VWS V14.00,2013-04-10 15:23:00,
2013-04-10 11:28:00,75.4,56.0,29.06,SW,224,0.0,5.8,51,0.00,,SKC,0.00,VWS V14.00,2013-04-10 15:28:00,
2013-04-10 11:33:00,75.7,56.3,29.06,NW,308,4.8,4.8,51,0.00,,SKC,0.00,VWS V14.00,2013-04-10 15:33:00,
2013-04-10 11:38:00,75.9,55.4,29.06,WNW,298,6.4,6.4,49,0.00,,SKC,0.00,VWS V14.00,2013-04-10 15:38:00,
2013-04-10 11:43:00,76.1,54.4,29.06,SW,232,4.3,7.6,47,0.00,,SKC,0.00,VWS V14.00,2013-04-10 15:43:00,
2013-04-10 11:48:00,76.1,53.8,29.06,NNE,33,3.8,7.6,46,0.00,,SKC,0.00,VWS V14.00,2013-04-10 15:48:00,
2013-04-10 11:53:00,76.3,54.6,29.06,ESE,112,3.8,8.1,47,0.00,,SKC,0.00,VWS V14.00,2013-04-10 15:53:00,
2013-04-10 11:58:00,77.0,55.2,29.06,South,175,0.0,8.1,47,0.00,,SKC,0.00,VWS V14.00,2013-04-10 15:58:00,
2013-04-10 12:03:00,77.4,54.4,29.06,NW,316,4.3,4.3,45,0.00,,SKC,0.00,VWS V14.00,2013-04-10 16:03:00,
2013-04-10 12:08:00,77.5,53.3,29.06,NNW,334,6.4,8.1,43,0.00,,SKC,0.00,VWS V14.00,2013-04-10 16:08:00,
2013-04-10 12:13:00,78.3,55.2,29.06,SSE,164,0.0,4.5,45,0.00,,SKC,0.00,VWS V14.00,2013-04-10 16:13:00,
2013-04-10 12:18:00,78.6,54.3,29.03,WSW,255,3.8,5.8,43,0.00,,SKC,0.00,VWS V14.00,2013-04-10 16:18:00,
2013-04-10 12:23:00,78.8,54.4,29.03,NW,320,2.7,5.4,43,0.00,,SKC,0.00,VWS V14.00,2013-04-10 16:23:00,
2013-04-10 12:28:00,79.3,54.9,29.03,NNW,329,3.8,5.8,43,0.00,,SKC,0.00,VWS V14.00,2013-04-10 16:28:00,
2013-04-10 12:33:00,79.7,54.6,29.03,NNW,331,3.2,8.3,42,0.00,,SKC,0.00,VWS V14.00,2013-04-10 16:33:00,
2013-04-10 12:38:00,80.2,55.1,29.03,SW,234,3.8,8.3,42,0.00,,SKC,0.00,VWS V14.00,2013-04-10 16:38:00,
2013-04-10 12:43:00,81.0,55.7,29.03,South,186,3.2,3.6,42,0.00,,SKC,0.00,VWS V14.00,2013-04-10 16:43:00,
2013-04-10 12:48:00,81.5,55.5,29.03,NNW,341,9.1,9.1,41,0.00,,SKC,0.00,VWS V14.00,2013-04-10 16:48:00,
2013-04-10 12:53:00,81.3,54.7,29.03,NW,310,3.2,6.3,40,0.00,,SKC,0.00,VWS V14.00,2013-04-10 16:53:00,
2013-04-10 12:58:00,81.3,54.7,29.03,WNW,284,2.7,6.3,40,0.00,,SKC,0.00,VWS V14.00,2013-04-10 16:58:00,
2013-04-10 13:03:00,81.5,53.5,29.03,WNW,299,3.8,7.6,38,0.00,,SKC,0.00,VWS V14.00,2013-04-10 17:03:00,
2013-04-10 13:08:00,81.5,54.2,29.03,WNW,302,2.7,7.6,39,0.00,,SKC,0.00,VWS V14.00,2013-04-10 17:08:00,
2013-04-10 13:13:00,81.9,54.5,29.03,SW,232,0.0,5.4,39,0.00,,SKC,0.00,VWS V14.00,2013-04-10 17:13:00,
2013-04-10 13:18:00,82.6,54.4,29.03,NNW,327,7.0,7.0,38,0.00,,SKC,0.00,VWS V14.00,2013-04-10 17:18:00,
2013-04-10 13:23:00,82.8,54.6,29.03,SW,229,4.3,4.9,38,0.00,,SKC,0.00,VWS V14.00,2013-04-10 17:23:00,
2013-04-10 13:28:00,83.5,54.5,29.03,West,276,0.0,4.9,37,0.00,,SKC,0.00,VWS V14.00,2013-04-10 17:28:00,
2013-04-10 13:33:00,83.5,53.8,29.00,NNW,329,3.8,5.4,36,0.00,,SKC,0.00,VWS V14.00,2013-04-10 17:33:00,
2013-04-10 13:38:00,83.8,54.1,29.00,SW,227,0.0,5.4,36,0.00,,SKC,0.00,VWS V14.00,2013-04-10 17:38:00,
2013-04-10 13:43:00,84.0,53.5,29.00,SW,234,4.8,5.8,35,0.00,,SKC,0.00,VWS V14.00,2013-04-10 17:43:00,
2013-04-10 13:49:00,84.6,53.9,29.00,ESE,120,3.2,5.8,35,0.00,,SKC,0.00,VWS V14.00,2013-04-10 17:49:00,
2013-04-10 13:54:00,84.7,52.5,29.00,WNW,295,7.0,7.6,33,0.00,,SKC,0.00,VWS V14.00,2013-04-10 17:54:00,
2013-04-10 13:59:00,84.6,53.1,29.00,West,277,2.7,7.6,34,0.00,,SKC,0.00,VWS V14.00,2013-04-10 17:59:00,
2013-04-10 14:04:00,84.6,53.1,29.00,SW,219,4.8,4.8,34,0.00,,SKC,0.00,VWS V14.00,2013-04-10 18:04:00,
2013-04-10 14:09:00,84.9,51.8,29.00,NW,326,5.9,8.7,32,0.00,,SKC,0.00,VWS V14.00,2013-04-10 18:09:00,
2013-04-10 14:14:00,84.7,51.6,29.00,WSW,254,3.2,8.7,32,0.00,,SKC,0.00,VWS V14.00,2013-04-10 18:14:00,
2013-04-10 14:19:00,85.1,52.8,29.00,West,259,3.2,8.7,33,0.00,,SKC,0.00,VWS V14.00,2013-04-10 18:19:00,
2013-04-10 14:24:00,85.5,53.1,29.00,SSW,207,5.9,7.2,33,0.00,,SKC,0.00,VWS V14.00,2013-04-10 18:24:00,
2013-04-10 14:29:00,86.2,52.9,29.00,WNW,291,0.0,7.2,32,0.00,,SKC,0.00,VWS V14.00,2013-04-10 18:29:00,
2013-04-10 14:34:00,86.0,52.7,29.00,West,275,2.7,5.8,32,0.00,,SKC,0.00,VWS V14.00,2013-04-10 18:34:00,
2013-04-10 14:39:00,85.8,52.6,29.00,WSW,239,0.0,6.3,32,0.00,,SKC,0.00,VWS V14.00,2013-04-10 18:39:00,
2013-04-10 14:44:00,86.2,52.0,29.00,SW,228,0.0,7.6,31,0.00,,SKC,0.00,VWS V14.00,2013-04-10 18:44:00,
2013-04-10 14:49:00,86.7,52.5,28.97,NW,311,0.0,7.6,31,0.00,,SKC,0.00,VWS V14.00,2013-04-10 18:49:00,
2013-04-10 14:54:00,87.1,52.8,28.97,West,264,2.7,6.3,31,0.00,,SKC,0.00,VWS V14.00,2013-04-10 18:54:00,
2013-04-10 14:59:00,87.1,52.8,28.97,NW,307,0.0,6.3,31,0.00,,SKC,0.00,VWS V14.00,2013-04-10 18:59:00,
2013-04-10 15:04:00,87.6,53.3,28.97,NW,321,3.2,5.4,31,0.00,,SKC,0.00,VWS V14.00,2013-04-10 19:04:00,
2013-04-10 15:09:00,87.6,53.3,28.97,NW,314,3.2,5.4,31,0.00,,SKC,0.00,VWS V14.00,2013-04-10 19:09:00,
2013-04-10 15:14:00,87.1,51.9,28.97,West,264,3.2,5.4,30,0.00,,SKC,0.00,VWS V14.00,2013-04-10 19:14:00,
2013-04-10 15:19:00,87.1,51.9,28.97,NNW,331,4.8,6.7,30,0.00,,SKC,0.00,VWS V14.00,2013-04-10 19:19:00,
2013-04-10 15:24:00,87.3,53.0,28.97,SSW,210,4.8,5.4,31,0.00,,SKC,0.00,VWS V14.00,2013-04-10 19:24:00,
2013-04-10 15:29:00,87.6,52.4,28.97,SW,224,0.0,5.4,30,0.00,,SKC,0.00,VWS V14.00,2013-04-10 19:29:00,
2013-04-10 15:34:00,88.0,52.7,28.97,SSW,210,0.0,2.7,30,0.00,,SKC,0.00,VWS V14.00,2013-04-10 19:34:00,
2013-04-10 15:39:00,88.2,52.8,28.97,SW,223,0.0,3.6,30,0.00,,SKC,0.00,VWS V14.00,2013-04-10 19:39:00,
2013-04-10 15:44:00,88.3,53.0,28.97,SW,223,0.0,0.0,30,0.00,,SKC,0.00,VWS V14.00,2013-04-10 19:44:00,
2013-04-10 15:49:00,88.5,53.2,28.94,WSW,238,0.0,3.6,30,0.00,,SKC,0.00,VWS V14.00,2013-04-10 19:49:00,
2013-04-10 15:54:00,88.5,53.2,28.94,South,190,0.0,4.0,30,0.00,,SKC,0.00,VWS V14.00,2013-04-10 19:54:00,
2013-04-10 15:59:00,88.2,52.8,28.94,West,278,0.0,4.0,30,0.00,,SKC,0.00,VWS V14.00,2013-04-10 19:59:00,
2013-04-10 16:04:00,88.2,51.9,28.94,SW,220,0.0,3.1,29,0.00,,SKC,0.00,VWS V14.00,2013-04-10 20:04:00,
2013-04-10 16:09:00,88.2,51.9,28.94,NW,319,4.3,4.3,29,0.00,,SKC,0.00,VWS V14.00,2013-04-10 20:09:00,
2013-04-10 16:14:00,87.8,51.6,28.94,West,274,3.8,5.8,29,0.00,,SKC,0.00,VWS V14.00,2013-04-10 20:14:00,
2013-04-10 16:19:00,87.6,52.4,28.94,NW,315,3.8,5.8,30,0.00,,SKC,0.00,VWS V14.00,2013-04-10 20:19:00,
2013-04-10 16:24:00,87.4,52.2,28.94,NW,307,0.0,3.6,30,0.00,,SKC,0.00,VWS V14.00,2013-04-10 20:24:00,
2013-04-10 16:29:00,87.4,52.2,28.94,WSW,253,0.0,4.0,30,0.00,,SKC,0.00,VWS V14.00,2013-04-10 20:29:00,
2013-04-10 16:34:00,87.3,52.1,28.91,NW,308,0.0,5.8,30,0.00,,SKC,0.00,VWS V14.00,2013-04-10 20:34:00,
2013-04-10 16:39:00,86.9,50.8,28.91,NNW,338,3.2,5.8,29,0.00,,SKC,0.00,VWS V14.00,2013-04-10 20:39:00,
2013-04-10 16:44:00,86.4,50.4,28.91,SW,225,0.0,5.4,29,0.00,,SKC,0.00,VWS V14.00,2013-04-10 20:44:00,
2013-04-10 16:49:00,86.4,50.4,28.91,NW,312,2.7,6.3,29,0.00,,SKC,0.00,VWS V14.00,2013-04-10 20:49:00,
2013-04-10 16:54:00,86.2,51.1,28.91,WNW,286,0.0,3.6,30,0.00,,SKC,0.00,VWS V14.00,2013-04-10 20:54:00,
2013-04-10 16:59:00,85.8,50.8,28.91,WNW,294,3.2,5.8,30,0.00,,SKC,0.00,VWS V14.00,2013-04-10 20:59:00,
2013-04-10 17:04:00,85.5,50.5,28.91,NW,316,3.8,5.4,30,0.00,,SKC,0.00,VWS V14.00,2013-04-10 21:04:00,
2013-04-10 17:09:00,85.3,50.4,28.91,NW,306,0.0,5.4,30,0.00,,SKC,0.00,VWS V14.00,2013-04-10 21:09:00,
2013-04-10 17:14:00,85.3,50.4,28.91,West,273,0.0,3.6,30,0.00,,SKC,0.00,VWS V14.00,2013-04-10 21:14:00,
2013-04-10 17:19:00,85.5,50.5,28.91,NNW,331,0.0,5.4,30,0.00,,SKC,0.00,VWS V14.00,2013-04-10 21:19:00,
2013-04-10 17:24:00,85.3,50.4,28.91,NW,314,0.0,3.6,30,0.00,,SKC,0.00,VWS V14.00,2013-04-10 21:24:00,
2013-04-10 17:29:00,85.1,50.2,28.91,WSW,240,0.0,5.4,30,0.00,,SKC,0.00,VWS V14.00,2013-04-10 21:29:00,
2013-04-10 17:34:00,85.1,50.2,28.91,NW,312,0.0,4.9,30,0.00,,SKC,0.00,VWS V14.00,2013-04-10 21:34:00,
2013-04-10 17:39:00,84.7,49.9,28.91,NNW,338,0.0,4.9,30,0.00,,SKC,0.00,VWS V14.00,2013-04-10 21:39:00,
2013-04-10 17:44:00,84.7,49.9,28.91,SW,214,0.0,2.7,30,0.00,,SKC,0.00,VWS V14.00,2013-04-10 21:44:00,
2013-04-10 17:49:00,84.7,49.9,28.88,SW,226,0.0,4.0,30,0.00,,SKC,0.00,VWS V14.00,2013-04-10 21:49:00,
2013-04-10 17:54:00,84.6,49.8,28.88,NW,324,0.0,0.0,30,0.00,,SKC,0.00,VWS V14.00,2013-04-10 21:54:00,
2013-04-10 17:59:00,84.6,49.8,28.88,NW,318,0.0,3.6,30,0.00,,SKC,0.00,VWS V14.00,2013-04-10 21:59:00,
2013-04-10 18:05:00,84.2,49.4,28.88,NW,310,2.7,4.0,30,0.00,,SKC,0.00,VWS V14.00,2013-04-10 22:05:00,
2013-04-10 18:10:00,84.0,50.2,28.88,SSW,205,0.0,4.0,31,0.00,,SKC,0.00,VWS V14.00,2013-04-10 22:10:00,
2013-04-10 18:15:00,84.0,50.2,28.88,SW,220,5.4,5.4,31,0.00,,SKC,0.00,VWS V14.00,2013-04-10 22:15:00,
2013-04-10 18:20:00,83.8,50.0,28.88,WSW,247,0.0,4.5,31,0.00,,SKC,0.00,VWS V14.00,2013-04-10 22:20:00,
2013-04-10 18:25:00,83.7,49.8,28.88,SW,222,5.9,5.9,31,0.00,,SKC,0.00,VWS V14.00,2013-04-10 22:25:00,
2013-04-10 18:30:00,83.5,49.7,28.88,SSW,213,0.0,5.4,31,0.00,,SKC,0.00,VWS V14.00,2013-04-10 22:30:00,
2013-04-10 18:35:00,83.3,49.5,28.88,SW,225,4.8,4.9,31,0.00,,SKC,0.00,VWS V14.00,2013-04-10 22:35:00,
2013-04-10 18:40:00,83.1,49.4,28.88,ESE,121,0.0,4.9,31,0.00,,SKC,0.00,VWS V14.00,2013-04-10 22:40:00,
2013-04-10 18:45:00,82.9,50.1,28.88,SW,225,0.0,3.1,32,0.00,,SKC,0.00,VWS V14.00,2013-04-10 22:45:00,
2013-04-10 18:50:00,82.8,49.9,28.88,NW,304,0.0,3.1,32,0.00,,SKC,0.00,VWS V14.00,2013-04-10 22:50:00,
2013-04-10 18:55:00,82.8,49.9,28.88,West,265,0.0,3.1,32,0.00,,SKC,0.00,VWS V14.00,2013-04-10 22:55:00,
2013-04-10 19:00:00,82.6,49.8,28.88,SSW,202,0.0,3.6,32,0.00,,SKC,0.00,VWS V14.00,2013-04-10 23:00:00,
2013-04-10 19:05:00,82.2,49.5,28.88,WSW,240,0.0,3.6,32,0.00,,SKC,0.00,VWS V14.00,2013-04-10 23:05:00,
2013-04-10 19:10:00,82.0,49.3,28.88,SE,144,0.0,3.6,32,0.00,,SKC,0.00,VWS V14.00,2013-04-10 23:10:00,
2013-04-10 19:15:00,81.7,49.0,28.88,SW,236,0.0,0.0,32,0.00,,SKC,0.00,VWS V14.00,2013-04-10 23:15:00,
2013-04-10 19:20:00,81.3,48.7,28.85,South,184,0.0,0.0,32,0.00,,SKC,0.00,VWS V14.00,2013-04-10 23:20:00,
2013-04-10 19:25:00,81.0,49.2,28.85,SSW,213,0.0,4.9,33,0.00,,SKC,0.00,VWS V14.00,2013-04-10 23:25:00,
2013-04-10 19:30:00,80.8,49.0,28.85,SW,223,0.0,4.9,33,0.00,,SKC,0.00,VWS V14.00,2013-04-10 23:30:00,
2013-04-10 19:35:00,80.4,48.7,28.85,SW,223,0.0,0.0,33,0.00,,SKC,0.00,VWS V14.00,2013-04-10 23:35:00,
2013-04-10 19:40:00,80.1,48.4,28.85,SW,220,0.0,0.0,33,0.00,,SKC,0.00,VWS V14.00,2013-04-10 23:40:00,
2013-04-10 19:45:00,79.7,48.9,28.85,SW,227,0.0,0.0,34,0.00,,SKC,0.00,VWS V14.00,2013-04-10 23:45:00,
2013-04-10 19:50:00,79.3,48.6,28.85,SSW,211,0.0,0.0,34,0.00,,SKC,0.00,VWS V14.00,2013-04-10 23:50:00,
2013-04-10 19:55:00,79.0,48.2,28.85,SSW,211,0.0,0.0,34,0.00,,SKC,0.00,VWS V14.00,2013-04-10 23:55:00,
2013-04-10 20:00:00,78.6,47.9,28.85,SW,215,0.0,0.0,34,0.00,,SKC,0.00,VWS V14.00,2013-04-11 00:00:00,
2013-04-10 20:05:00,78.3,47.6,28.85,SW,216,0.0,0.0,34,0.00,,SKC,0.00,VWS V14.00,2013-04-11 00:05:00,
2013-04-10 20:10:00,77.9,48.1,28.85,SSW,192,0.0,0.0,35,0.00,,SKC,0.00,VWS V14.00,2013-04-11 00:10:00,
2013-04-10 20:15:00,77.5,47.8,28.85,SSW,193,0.0,0.0,35,0.00,,SKC,0.00,VWS V14.00,2013-04-11 00:15:00,
2013-04-10 20:20:00,77.2,47.4,28.85,SSW,193,0.0,0.0,35,0.00,,SKC,0.00,VWS V14.00,2013-04-11 00:20:00,
2013-04-10 20:25:00,77.0,47.3,28.85,SSW,193,0.0,0.0,35,0.00,,SKC,0.00,VWS V14.00,2013-04-11 00:25:00,
2013-04-10 20:30:00,76.6,47.7,28.85,SSW,193,0.0,0.0,36,0.00,,SKC,0.00,VWS V14.00,2013-04-11 00:30:00,
2013-04-10 20:35:00,76.3,47.4,28.85,SSW,193,0.0,0.0,36,0.00,,SKC,0.00,VWS V14.00,2013-04-11 00:35:00,
2013-04-10 20:40:00,76.1,47.2,28.85,SSW,193,0.0,0.0,36,0.00,,SKC,0.00,VWS V14.00,2013-04-11 00:40:00,
2013-04-10 20:45:00,75.7,46.9,28.85,SSW,193,0.0,0.0,36,0.00,,SKC,0.00,VWS V14.00,2013-04-11 00:45:00,
2013-04-10 20:50:00,75.4,47.3,28.85,SSW,193,0.0,0.0,37,0.00,,SKC,0.00,VWS V14.00,2013-04-11 00:50:00,
2013-04-10 20:55:00,74.8,47.6,28.85,SSW,193,0.0,0.0,38,0.00,,SKC,0.00,VWS V14.00,2013-04-11 00:55:00,
2013-04-10 21:00:00,74.5,47.2,28.85,SSW,193,0.0,0.0,38,0.00,,SKC,0.00,VWS V14.00,2013-04-11 01:00:00,
2013-04-10 21:05:00,74.1,47.6,28.85,SSW,193,0.0,0.0,39,0.00,,SKC,0.00,VWS V14.00,2013-04-11 01:05:00,
2013-04-10 21:10:00,73.6,47.1,28.85,SSW,193,0.0,0.0,39,0.00,,SKC,0.00,VWS V14.00,2013-04-11 01:10:00,
2013-04-10 21:15:00,73.2,47.5,28.85,SSW,193,0.0,0.0,40,0.00,,SKC,0.00,VWS V14.00,2013-04-11 01:15:00,
2013-04-10 21:20:00,73.0,48.0,28.85,SSW,193,0.0,0.0,41,0.00,,SKC,0.00,VWS V14.00,2013-04-11 01:20:00,
2013-04-10 21:25:00,72.7,47.7,28.85,SSW,192,0.0,0.0,41,0.00,,SKC,0.00,VWS V14.00,2013-04-11 01:25:00,
2013-04-10 21:30:00,72.5,47.5,28.85,SSW,193,0.0,0.0,41,0.00,,SKC,0.00,VWS V14.00,2013-04-11 01:30:00,
2013-04-10 21:35:00,72.3,48.0,28.85,SSW,193,0.0,0.0,42,0.00,,SKC,0.00,VWS V14.00,2013-04-11 01:35:00,
2013-04-10 21:40:00,72.0,47.6,28.85,SSW,193,0.0,0.0,42,0.00,,SKC,0.00,VWS V14.00,2013-04-11 01:40:00,
2013-04-10 21:45:00,71.8,47.5,28.85,SSW,193,0.0,0.0,42,0.00,,SKC,0.00,VWS V14.00,2013-04-11 01:45:00,
2013-04-10 21:50:00,71.6,47.3,28.85,SSW,193,0.0,0.0,42,0.00,,SKC,0.00,VWS V14.00,2013-04-11 01:50:00,
2013-04-10 21:55:00,71.2,47.6,28.85,SSW,193,0.0,0.0,43,0.00,,SKC,0.00,VWS V14.00,2013-04-11 01:55:00,
2013-04-10 22:00:00,70.9,47.3,28.85,SSW,193,0.0,0.0,43,0.00,,SKC,0.00,VWS V14.00,2013-04-11 02:00:00,
2013-04-10 22:05:00,70.3,47.4,28.82,SSW,193,0.0,0.0,44,0.00,,SKC,0.00,VWS V14.00,2013-04-11 02:05:00,
2013-04-10 22:10:00,70.2,47.2,28.82,SSW,193,0.0,0.0,44,0.00,,SKC,0.00,VWS V14.00,2013-04-11 02:10:00,
2013-04-10 22:15:00,69.8,46.9,28.82,SSW,193,0.0,0.0,44,0.00,,SKC,0.00,VWS V14.00,2013-04-11 02:15:00,
2013-04-10 22:20:00,69.4,47.2,28.82,SSW,192,0.0,0.0,45,0.00,,SKC,0.00,VWS V14.00,2013-04-11 02:20:00,
2013-04-10 22:25:00,69.1,47.5,28.82,SSW,193,0.0,0.0,46,0.00,,SKC,0.00,VWS V14.00,2013-04-11 02:25:00,
2013-04-10 22:30:00,68.9,47.3,28.82,SSW,200,0.0,0.0,46,0.00,,SKC,0.00,VWS V14.00,2013-04-11 02:30:00,
2013-04-10 22:35:00,68.7,47.7,28.82,SSW,200,0.0,0.0,47,0.00,,SKC,0.00,VWS V14.00,2013-04-11 02:35:00,
2013-04-10 22:40:00,68.7,47.7,28.82,SSW,201,0.0,0.0,47,0.00,,SKC,0.00,VWS V14.00,2013-04-11 02:40:00,
2013-04-10 22:45:00,68.5,47.5,28.82,SSW,200,0.0,0.0,47,0.00,,SKC,0.00,VWS V14.00,2013-04-11 02:45:00,
2013-04-10 22:50:00,68.4,47.4,28.82,SSW,200,0.0,0.0,47,0.00,,SKC,0.00,VWS V14.00,2013-04-11 02:50:00,
2013-04-10 22:55:00,68.2,47.8,28.82,SSW,193,0.0,0.0,48,0.00,,SKC,0.00,VWS V14.00,2013-04-11 02:55:00,
2013-04-10 23:00:00,68.0,47.6,28.82,WSW,245,3.2,3.2,48,0.00,,SKC,0.00,VWS V14.00,2013-04-11 03:00:00,
2013-04-10 23:05:00,68.0,47.6,28.85,SSW,205,3.2,5.4,48,0.00,,SKC,0.00,VWS V14.00,2013-04-11 03:05:00,
2013-04-10 23:11:00,68.4,47.9,28.85,South,189,0.0,0.0,48,0.00,,SKC,0.00,VWS V14.00,2013-04-11 03:11:00,
2013-04-10 23:16:00,68.4,47.9,28.85,SW,226,2.7,3.6,48,0.00,,SKC,0.00,VWS V14.00,2013-04-11 03:16:00,
2013-04-10 23:21:00,68.4,47.9,28.85,SW,214,0.0,2.7,48,0.00,,SKC,0.00,VWS V14.00,2013-04-11 03:21:00,
2013-04-10 23:26:00,68.4,47.9,28.85,South,172,4.3,4.3,48,0.00,,SKC,0.00,VWS V14.00,2013-04-11 03:26:00,
2013-04-10 23:31:00,68.5,48.1,28.85,SSW,193,0.0,0.0,48,0.00,,SKC,0.00,VWS V14.00,2013-04-11 03:31:00,
2013-04-10 23:36:00,68.5,48.1,28.85,SW,215,3.2,4.0,48,0.00,,SKC,0.00,VWS V14.00,2013-04-11 03:36:00,
2013-04-10 23:41:00,68.7,48.3,28.85,SW,227,0.0,0.0,48,0.00,,SKC,0.00,VWS V14.00,2013-04-11 03:41:00,
2013-04-10 23:46:00,68.7,48.3,28.85,SW,214,3.8,3.8,48,0.00,,SKC,0.00,VWS V14.00,2013-04-11 03:46:00,
2013-04-10 23:51:00,68.7,48.3,28.85,SSW,205,0.0,0.0,48,0.00,,SKC,0.00,VWS V14.00,2013-04-11 03:51:00,